Regional Weather Roundup
Issued by NWS

Home | Current Version | Previous Version | Text Only | Print | Product List | Glossary On
Versions: 1 2 3 4 5 6 7 8 9 10 11 12 13 14 15 16 17 18 19 20 21 22 23 24 25 26 27 28
000
ASUS42 KTBW 290217
RWRFL
FLORIDA REGIONAL WEATHER ROUNDUP
NATIONAL WEATHER SERVICE TAMPA BAY RUSKIN FL
1000 PM EDT SAT MAY 28 2016

NOTE: "FAIR" INDICATES FEW OR NO CLOUDS BELOW 12,000 FEET WITH NO
SIGNIFICANT WEATHER AND/OR OBSTRUCTIONS TO VISIBILITY.

FLZ001>010-012>015-112-114-115-290300-
PANHANDLE FLORIDA

CITY           SKY/WX    TMP DP  RH WIND       PRES   REMARKS
PENSACOLA      CLEAR     75  66  73 CALM      30.06S
MILTON NAS     PTCLDY    73  67  81 CALM      30.07
CRESTVIEW      CLEAR     77  64  64 W5        30.08R
DUKE FIELD     FAIR      77  63  61 W3        30.06R
VALPARAISO     PTCLDY    77  64  64 W2        30.06S
MARY ESTHER    DRIZZLE   77  63  61 CALM      30.05S
PANAMA CITY    FAIR      76  73  91 W3        30.05F
TYNDALL AFB    MOCLDY    77  73  87 W3        30.06S
APALACHICOLA   PTCLDY    76  73  91 NW3       30.06S

STATION/POSITION SKY/WX   TEMP    WIND        PRES    WAVE   SWELL
                          AIR SEA DIR/SP/G            HT/PER HT/PER
                          (F)     (DEG/KT/KT) (MB)    (FT/S) (FT/S)
30.1N   87.6W              79 80  130/  4/  4 1017.1R   2/ 5   2/ 5
29.2N   88.2W              79 79  150/  4/  4 1017.8R
28.8N   86.0W              79 81  190/  4/  6 1018.0F   2/ 5   2/ 5
PANAMA CITY BEAC                              1018.4
TOWER C                    77     260/  5/  7 1018.2S
28.5N   84.5W              78 79  290/  6/  8 1017.2S   1/ 4

$$
FLZ011-016>038-118-127-128-134-139-239-290300-
NORTH FLORIDA

CITY           SKY/WX    TMP DP  RH WIND       PRES   REMARKS
MARIANNA       CLEAR     77  70  79 SW6       30.05R
TALLAHASSEE    PTCLDY    80  67  64 W6        30.04R
PERRY          PTCLDY    77  72  84 SW5       30.05R
LIVE OAK       FAIR      81  70  69 CALM      30.05R
CROSS CITY       N/A     78  70  76 CALM      30.03R
LAKE CITY      FAIR      73  68  83 CALM      30.04R
GAINESVILLE    CLEAR     75  67  76 E5        30.03R
WILLISTON      FAIR      77  70  78 SW3       30.04R
PALATKA        FAIR      75  70  83 E6        30.04R
MAYPORT NAS    MOCLDY    75  68  78 N13G20    30.04R
JACKSONVILLE   PTCLDY    72  68  87 N7        30.04R
JAX NAS        PTCLDY    78  68  71 N10       30.04R
JAX CECIL        N/A     73  68  83 N5        30.05R
FERNANDINA BEA FAIR      75  68  78 N7        30.02S
ST AUGUSTINE   MOCLDY    75  69  81 N13       30.04R
PALM COAST     MOCLDY    74  70  87 N8        30.03R

STATION/POSITION SKY/WX   TEMP    WIND        PRES    WAVE   SWELL
                          AIR SEA DIR/SP/G            HT/PER HT/PER
                          (F)     (DEG/KT/KT) (MB)    (FT/S) (FT/S)
SHELL POINT                81     290/  6/  9 1015.8
KEATON BEACH               79     290/ 12/ 15 1016.7R
CEDAR KEY                  79     310/  7/ 10 1017.1R
FERNANDINA                                    1016.7
30.7N   81.3W                 78                N/A     6/ 6
MAYPORT                                       1017.0
31.4N   80.9W              73 76   10/ 17/ 21 1016.0R   7/ 6
ST AUGUSTINE               75 79  360/ 20/ 22 1017.7R

$$
FLZ040-043>046-052-053-057-058-063-144-290300-
INTERIOR CENTRAL FLORIDA

CITY           SKY/WX    TMP DP  RH WIND       PRES   REMARKS
OCALA          CLEAR     79  66  65 NE3       30.03R
THE VILLAGES     N/A     79  72  78 MISG      29.93R
LEESBURG       CLEAR     78  69  73 E7        30.04R
SANFORD        CLEAR     76  68  76 NE6       30.04R
ORLANDO EXEC   CLEAR     78  69  73 E5        30.04R
ORLANDO INTL   PTCLDY    77  68  73 NE8       30.04R
KISSIMMEE      CLEAR     79  72  78 E7        30.04R
WINTER HAVEN   MOCLDY    79  70  74 S3        30.05R
LAKELAND       CLEAR     75  72  88 SW5       30.03R
BARTOW         LGT RAIN  72  72 100 E5        30.05R

$$
FLZ041-047-054-059-064-141-147-290300-
EAST CENTRAL FLORIDA

CITY           SKY/WX    TMP DP  RH WIND       PRES   REMARKS
DAYTONA BEACH  PTCLDY    76  70  82 N9        30.03R
DELAND           N/A     73  68  83 CALM      30.05R
NEW SMYRNA BEA PTCLDY    77  70  78 N14G21    30.02S
JFK SPACE CTR  PTCLDY    74  69  86 NE3       30.02R
CAPE CANAVERAL CLEAR     75  70  85 N5        30.02R
PATRICK AFB    CLEAR     78  72  82 N9        30.03R
MELBOURNE      PTCLDY    78  71  79 NE8       30.04R
VERO BEACH     CLEAR     78  71  79 NE5       30.04R
FT PIERCE      PTCLDY    77  72  84 CALM      30.04R
STUART         CLEAR     82  73  74 CALM      30.05R

STATION/POSITION SKY/WX   TEMP    WIND        PRES    WAVE   SWELL
                          AIR SEA DIR/SP/G            HT/PER HT/PER
                          (F)     (DEG/KT/KT) (MB)    (FT/S) (FT/S)
28.5N   80.2W              77 80  350/  8/ 10 1016.8R
28.9N   78.5W              79 79  210/  4/  6 1016.2S
TRIDENT PIER                                  1016.7
28.4N   80.5W                 81                N/A     2/ 9
27.5N   80.2W                 80                N/A     3/ 8

$$
FLZ050-056-061-142-242-148-248-149-249-151-251-155-255-
160-260-290300-
WEST CENTRAL FLORIDA

CITY           SKY/WX    TMP DP  RH WIND       PRES   REMARKS
CRYSTAL RIVER  FAIR      77  72  83 CALM      30.04R
INVERNESS      FAIR      79  72  78 CALM      30.04R
BROOKSVILLE    CLEAR     78  70  76 NW7       30.04R
ZEPHYRHILLS    FAIR      79  67  66 CALM      30.04R
CLEARWATER AIR FAIR      77  70  78 NW5       30.04R
ST PETE CLEARW PTCLDY    79  68  69 W6        30.04R
TAMPA INTL     PTCLDY    81  68  64 W6        30.04R
TAMPA EXEC     CLEAR     77  70  78 CALM      30.04R
PLANT CITY     CLOUDY    79  72  78 SW3       30.05R
MACDILL AFB    CLEAR     80  71  73 W7        30.03R
PETER O KNIGHT PTCLDY    82  70  65 NW3       30.04R
ST PETERSBURG  MOCLDY    81  70  69 NW8       30.01R
SARASOTA       CLOUDY    81  71  71 NW6       30.02
VENICE         NOT AVBL

STATION/POSITION SKY/WX   TEMP    WIND        PRES    WAVE   SWELL
                          AIR SEA DIR/SP/G            HT/PER HT/PER
                          (F)     (DEG/KT/KT) (MB)    (FT/S) (FT/S)
27.3N   84.2W                 81                N/A     1/ 4
CLEARWATER BEACH                              1016.8
MIDDLE TAMPA BAY NOT AVBL
VENICE                     80 81  290/  3/  4 1016.7R

$$
FLZ066-069-070-075>078-162-262-165-265-290300-
SOUTHWEST FLORIDA AND KEYS

CITY           SKY/WX    TMP DP  RH WIND       PRES   REMARKS
PUNTA GORDA    CLEAR     76  72  87 CALM      30.05R
FT MYERS       CLEAR     80  70  71 NW5       30.03R
SOUTHWEST INTL CLEAR     79  71  76 SW5       30.03R
NAPLES         CLEAR     79  72  79 CALM      30.03R
MARCO ISLAND   CLEAR     79  70  73 CALM      30.04R
MARATHON       CLEAR     81  68  64 CALM      30.03R
KEY WEST NAS   PTCLDY    80  69  69 E6        30.03R
KEY WEST INTL  PTCLDY    82  71  69 E3        30.03R

STATION/POSITION SKY/WX   TEMP    WIND        PRES    WAVE   SWELL
                          AIR SEA DIR/SP/G            HT/PER HT/PER
                          (F)     (DEG/KT/KT) (MB)    (FT/S) (FT/S)
NAPLES                                        1016.5R
26.0N   85.6W              81 82   90/  2/  4 1017.4R   2/ 4   2/ 4
DRY TORTUGAS               81      70/  8/  8 1016.9R
SAND KEY                   81     140/  3/  4 1017.3R
LONG KEY                   82 86  100/  5/  6 1017.3R

$$
FLZ067-068-071>074-168-172>174-290300-
SOUTHEAST FLORIDA

CITY           SKY/WX    TMP DP  RH WIND       PRES   REMARKS
W PALM BEACH   MOCLDY    80  70  71 SE6       30.05R
BOCA RATON     PTCLDY    77  72  83 SE5       30.04R
FT LAUDER-EXEC CLEAR     77  70  79 E6        30.04R
FT LAUDERDALE  MOCLDY    79  70  74 E6        30.03R
POMPANO BEACH  CLEAR     77  71  82 E3        30.04R
PEMBROKE PINES CLEAR     77  70  79 E3        30.05R
OPA LOCKA      CLEAR     78  70  76 E5        30.04R
MIAMI          MOCLDY    79  69  71 SE6       30.04R
WEST KENDALL   CLEAR     76  70  82 E3        30.04R
HOMESTEAD      CLEAR     78  73  85 E2        30.04R

STATION/POSITION SKY/WX   TEMP    WIND        PRES    WAVE   SWELL
                          AIR SEA DIR/SP/G            HT/PER HT/PER
                          (F)     (DEG/KT/KT) (MB)    (FT/S) (FT/S)
PORT EVERGLADES            80      80/  5/  7 1017.2R
VIRGINIA KEY                                  1017.0
LAKE WORTH                                    1016.7
FOWEY ROCKS                80 82   90/  5/  5 1017.8R
SETTLEMENT POINT           79      70/  6/  6 1018.1R

$$





USA.gov is the U.S. government's official web portal to all federal, state and local government web resources and services.